Weather History for KCTZ - March, 2013

Change the Weather History Date:

Monday, March 11, 2013

  Actual Average (KFAY) Record (KFAY)
Temperature  
Mean Temperature 55 °F 53 °F  
Max Temperature 68 °F 65 °F 87 °F (1925)
Min Temperature 42 °F 41 °F 23 °F (1996)
Degree Days  
Heating Degree Days 10 13  
Month to date heating degree days 153  
Since 1 July heating degree days 2378  
Cooling Degree Days 0 0  
Month to date cooling degree days 0  
Year to date cooling degree days 4  
Growing Degree Days 5 (Base 50)    
Moisture  
Dew Point 49 °F    
Average Humidity 77    
Maximum Humidity 99    
Minimum Humidity 54    
Precipitation  
Precipitation 0.00 in 0.10 in 1.90 in (1934)
Month to date precipitation 1.16  
Year to date precipitation 7.22  
Sea Level Pressure  
Sea Level Pressure 30.12 in    
Wind  
Wind Speed 3 mph (SE)    
Max Wind Speed 10 mph    
Max Gust Speed 17 mph    
Visibility 10 miles    
Events Rain    
T = Trace of Precipitation, MM = Missing Value Source: NWS Daily Summary

Daily Weather History Graph

Daily Weather History Graph

Search for Another Location

Airport or City:

Trip Planner

Search our weather history database for the weather conditions in past years. The results will help you decide how hot, cold, wet, or windy it might be!

Date:

Astronomy

Mar. 11, 2013 Rise Set
Actual Time 7:29 AM EDT 7:17 PM EDT
Civil Twilight 7:04 AM EDT 7:43 PM EDT
Nautical Twilight 6:34 AM EDT 8:12 PM EDT
Astronomical Twilight 6:05 AM EDT 8:42 PM EDT
Moon 7:02 AM EDT (3/11) 7:25 PM EDT (3/11)
Length of Visible Light 12h 39m
Length of Day
11h 48m
Waning Crescent, 0% of the Moon is Illuminated
Mar 11
Waning Crescent
Mar 11
New
Mar 19
First Quarter
Mar 27
Full
Apr 3
Last Quarter

Hourly Weather History & Observations

Time (EDT) Temp. Windchill Dew Point Humidity Pressure Visibility Wind Dir Wind Speed Gust Speed Precip Events Conditions
12:15 AM 47.3 °F - 37.4 °F 68% 30.26 in 10.0 mi ESE 3.5 mph - N/A   Clear
12:35 AM 47.3 °F - 39.2 °F 73% 30.26 in 10.0 mi Calm Calm - N/A   Clear
12:55 AM 46.4 °F - 39.2 °F 76% 30.25 in 10.0 mi Calm Calm - N/A   Clear
1:15 AM 45.3 °F - 37.8 °F 75% 30.25 in 10.0 mi Calm Calm - N/A   Clear
1:35 AM 44.6 °F - 39.9 °F 84% 30.25 in 10.0 mi Calm Calm - N/A   Clear
1:55 AM 44.4 °F - 41.0 °F 88% 30.25 in 10.0 mi Calm Calm - N/A   Clear
2:15 AM 44.6 °F - 41.7 °F 90% 30.25 in 10.0 mi Calm Calm - N/A   Clear
2:35 AM 44.1 °F - 41.5 °F 91% 30.24 in 10.0 mi Calm Calm - N/A   Clear
2:55 AM 43.0 °F - 41.0 °F 93% 30.23 in 10.0 mi Calm Calm - N/A   Clear
3:15 AM 42.3 °F - 40.6 °F 94% 30.23 in 10.0 mi Calm Calm - N/A   Clear
3:35 AM 42.8 °F - 41.0 °F 93% 30.21 in 10.0 mi Calm Calm - N/A   Clear
3:55 AM 43.0 °F - 41.5 °F 95% 30.21 in 10.0 mi Calm Calm - N/A   Clear
4:15 AM 42.8 °F - 41.7 °F 96% 30.20 in 10.0 mi Calm Calm - N/A   Mostly Cloudy
4:35 AM 44.1 °F 41.5 °F 42.6 °F 95% 30.18 in 10.0 mi East 4.6 mph - N/A   Scattered Clouds
4:55 AM 43.7 °F - 42.1 °F 94% 30.18 in 10.0 mi Calm Calm - N/A   Clear
5:15 AM 44.1 °F - 42.8 °F 95% 30.18 in 10.0 mi Calm Calm - N/A   Clear
5:35 AM 43.7 °F - 42.6 °F 96% 30.18 in 7.0 mi Calm Calm - N/A   Clear
5:55 AM 42.1 °F - 41.9 °F 99% 30.19 in 7.0 mi Calm Calm - N/A   Clear
6:15 AM 42.3 °F - 41.9 °F 99% 30.19 in 10.0 mi Calm Calm - N/A   Scattered Clouds
6:35 AM 42.8 °F - 42.3 °F 98% 30.19 in 10.0 mi Calm Calm - N/A   Mostly Cloudy
6:55 AM 42.8 °F - 42.3 °F 98% 30.18 in 7.0 mi Calm Calm - N/A   Scattered Clouds
7:15 AM 43.7 °F - 43.3 °F 99% 30.18 in 7.0 mi Calm Calm - N/A   Clear
7:35 AM 44.2 °F - 43.9 °F 99% 30.18 in 7.0 mi Calm Calm - N/A   Clear
7:55 AM 44.8 °F - 44.6 °F 99% 30.19 in 7.0 mi Calm Calm - N/A   Clear
8:15 AM 46.2 °F - 45.5 °F 97% 30.18 in 7.0 mi Calm Calm - N/A   Clear
8:35 AM 48.2 °F - 46.6 °F 94% 30.18 in 7.0 mi Calm Calm - N/A   Clear
8:55 AM 50.0 °F - 47.7 °F 92% 30.18 in 10.0 mi ESE 3.5 mph - N/A   Clear
9:15 AM 52.0 °F - 48.7 °F 89% 30.18 in 10.0 mi Calm Calm - N/A   Clear
9:35 AM 54.0 °F - 49.5 °F 85% 30.18 in 10.0 mi ESE 3.5 mph - N/A   Clear
9:55 AM 56.7 °F - 50.2 °F 79% 30.18 in 10.0 mi ESE 3.5 mph - N/A   Clear
10:15 AM 58.1 °F - 50.5 °F 76% 30.16 in 10.0 mi SE 5.8 mph - N/A   Clear
10:35 AM 60.3 °F - 50.7 °F 71% 30.16 in 10.0 mi ESE 5.8 mph - N/A   Clear
10:55 AM 62.6 °F - 51.1 °F 66% 30.15 in 10.0 mi SE 4.6 mph - N/A   Clear
11:15 AM 63.7 °F - 50.7 °F 63% 30.15 in 10.0 mi South 5.8 mph - N/A   Scattered Clouds
11:35 AM 65.1 °F - 51.1 °F 60% 30.14 in 10.0 mi SSE 6.9 mph - N/A   Scattered Clouds
11:55 AM 67.6 °F - 52.0 °F 57% 30.14 in 10.0 mi South 6.9 mph - N/A   Scattered Clouds
12:15 PM 68.4 °F - 51.4 °F 55% 30.14 in 10.0 mi South 10.4 mph - N/A   Scattered Clouds
12:35 PM 68.9 °F - 51.6 °F 54% 30.13 in 10.0 mi SSE 9.2 mph 16.1 mph N/A   Mostly Cloudy
12:55 PM 68.0 °F - 51.8 °F 56% 30.12 in 10.0 mi SSE 6.9 mph - N/A   Mostly Cloudy
1:15 PM 68.4 °F - 51.8 °F 55% 30.12 in 10.0 mi SSE 5.8 mph - N/A   Overcast
1:35 PM 68.0 °F - 51.8 °F 56% 30.11 in 10.0 mi SSE 10.4 mph - N/A   Overcast
1:55 PM 67.8 °F - 51.6 °F 56% 30.11 in 10.0 mi SSE 6.9 mph - N/A   Overcast
2:15 PM 67.3 °F - 51.8 °F 58% 30.09 in 10.0 mi SSE 6.9 mph - N/A   Overcast
2:35 PM 67.6 °F - 51.8 °F 57% 30.09 in 10.0 mi SSE 8.1 mph 17.3 mph N/A   Overcast
2:55 PM 67.1 °F - 52.9 °F 60% 30.08 in 10.0 mi SSE 6.9 mph - N/A   Overcast
3:15 PM 67.1 °F - 52.2 °F 59% 30.07 in 10.0 mi SSE 6.9 mph - N/A   Overcast
3:35 PM 65.8 °F - 52.7 °F 62% 30.07 in 10.0 mi SSW 6.9 mph - N/A   Overcast
3:55 PM 67.1 °F - 53.1 °F 61% 30.05 in 10.0 mi South 6.9 mph - N/A   Overcast
4:15 PM 67.6 °F - 53.4 °F 60% 30.04 in 10.0 mi South 8.1 mph 16.1 mph N/A   Overcast
4:35 PM 67.1 °F - 53.6 °F 62% 30.03 in 10.0 mi SSE 8.1 mph - N/A   Overcast
4:55 PM 66.6 °F - 53.6 °F 63% 30.02 in 10.0 mi South 10.4 mph - N/A   Overcast
5:15 PM 63.5 °F - 55.6 °F 75% 30.03 in 7.0 mi South 8.1 mph 16.1 mph N/A Rain Light Rain
5:35 PM 64.4 °F - 56.3 °F 75% 30.03 in 10.0 mi SSE 4.6 mph - N/A   Overcast
5:55 PM 64.9 °F - 55.4 °F 71% 30.04 in 10.0 mi South 4.6 mph - N/A   Overcast
6:15 PM 64.9 °F - 55.0 °F 70% 30.03 in 10.0 mi SE 5.8 mph - N/A   Overcast
6:35 PM 64.9 °F - 54.1 °F 68% 30.03 in 10.0 mi SSE 4.6 mph - N/A   Overcast
6:55 PM 64.8 °F - 53.2 °F 66% 30.02 in 10.0 mi SE 6.9 mph - N/A   Overcast
7:15 PM 64.4 °F - 53.1 °F 67% 30.02 in 10.0 mi SE 5.8 mph 16.1 mph N/A   Overcast
7:35 PM 63.7 °F - 53.1 °F 68% 30.02 in 10.0 mi SE 6.9 mph - N/A   Overcast
7:55 PM 63.1 °F - 53.1 °F 70% 30.01 in 10.0 mi SE 6.9 mph - N/A   Overcast
8:15 PM 62.8 °F - 53.2 °F 71% 30.01 in 10.0 mi SE 5.8 mph - N/A   Overcast
8:35 PM 62.2 °F - 53.4 °F 73% 30.01 in 10.0 mi SE 5.8 mph - N/A   Mostly Cloudy
8:55 PM 61.7 °F - 53.6 °F 75% 30.00 in 10.0 mi SE 6.9 mph - N/A   Scattered Clouds
9:15 PM 61.7 °F - 53.6 °F 75% 30.00 in 10.0 mi SE 5.8 mph - N/A   Scattered Clouds
9:35 PM 61.3 °F - 54.0 °F 77% 29.99 in 10.0 mi SSE 4.6 mph - N/A   Mostly Cloudy
9:55 PM 61.3 °F - 54.5 °F 78% 29.98 in 10.0 mi SE 4.6 mph - N/A   Clear
10:15 PM 61.0 °F - 54.7 °F 80% 29.99 in 10.0 mi SSE 4.6 mph - N/A   Scattered Clouds
10:35 PM 60.4 °F - 54.7 °F 81% 29.98 in 10.0 mi SE 3.5 mph - N/A   Scattered Clouds
10:55 PM 60.3 °F - 54.5 °F 81% 29.98 in 10.0 mi SE 3.5 mph - N/A   Clear
11:15 PM 60.1 °F - 54.9 °F 83% 29.99 in 10.0 mi Calm Calm - N/A   Scattered Clouds
11:35 PM 59.9 °F - 54.9 °F 83% 29.98 in 10.0 mi ESE 3.5 mph - N/A   Mostly Cloudy
11:55 PM 59.9 °F - 55.0 °F 84% 29.98 in 10.0 mi Calm Calm - N/A   Overcast